Content
SEND FEEDBACK

Daily
Averages
Monthly
Summary
United States of America

DAHLONEGA, GEORGIA


Home > North America > United States > Georgia
Elevation: 1414 feet     Latitude: 34 32N     Longitude: 083 59W

WEATHER
 
SELECT A DAY
Number of Records: 204,159;   Date Range: 7/1/96 - 8/12/14
 
SHARE

PRINT THIS DATA

[ ← Previous Day ]
WEATHER ALMANAC - JANUARY 24, 2013
[ Next Day → ]
[ °C ]   °F
Weather ElementAverageHighLow
Temperature45.4 °F52 °F (2:53 pm)34 °F (11:53 pm)
Dewpoint24.8 °F37.9 °F (4:53 am)7 °F (8:53 pm)
Humidity48.9 %76 % (5:53 am)17 % (2:53 pm)
Barometer30.21 in30.40 in (11:53 pm)30.10 in (4:53 am)
Wind Speed10.2 mph16.1 mph (1:11 am)
Wind Gust27.6 mph (1:11 am)
Weather ElementAverage
Visibility10 mi
Wind DirectionWSW (255.4 °)

Weather ElementTotal
Precipitation---
Heating Degree Days22 (Base 65)
Averaged from 28 records on January 24, 2013
WEATHER CONDITIONS BREAKOUT
WIND DIRECTION BREAKOUT
WEATHER BY HOUR - JANUARY 24, 2013
[ °C ]   °F
Local TimeTemperatureDewpointHumidityBarometerVisibilityWind DirectionWind SpeedGust SpeedPrecipitationEventsConditions
1:11 AM48.2 °F35.6 °F62 %30.15 in10.0 miWest (280°)16.1 mph27.6 mphOvercast
1:53 AM48.0 °F37.0 °F66 %30.14 in10.0 miWest (270°)13.8 mph23.0 mphOvercast
2:26 AM48.2 °F37.4 °F66 %30.13 in10.0 miWest (270°)11.5 mphOvercast
2:39 AM46.4 °F37.4 °F71 %30.13 in10.0 miWest (270°)12.7 mphMostly Cloudy
2:53 AM46.9 °F37.0 °F68 %30.12 in10.0 miWest (270°)10.4 mphOvercast
3:05 AM46.4 °F37.4 °F71 %30.12 in10.0 miWest (280°)11.5 mph18.4 mphOvercast
3:39 AM46.4 °F37.4 °F71 %30.12 in10.0 miWest (270°)11.5 mph19.6 mphMostly Cloudy
3:53 AM46.0 °F37.0 °F71 %30.12 in10.0 miWest (280°)11.5 mphPartly Cloudy
4:53 AM46.0 °F37.9 °F73 %30.10 in10.0 miWest (270°)12.7 mph23.0 mphClear
5:53 AM45.0 °F37.9 °F76 %30.10 in10.0 miWest (280°)10.4 mphClear
6:53 AM45.0 °F37.0 °F74 %30.13 in10.0 miWest (280°)12.7 mph19.6 mphPartly Cloudy
7:53 AM44.1 °F34.0 °F68 %30.14 in10.0 miWest (280°)8.1 mphClear
8:53 AM46.0 °F32.0 °F58 %30.17 in10.0 miWest (280°)10.4 mphClear
9:53 AM48.0 °F30.0 °F50 %30.21 in10.0 miNW (320°)10.4 mphClear
10:53 AM48.9 °F26.1 °F41 %30.21 in10.0 miWNW (290°)10.4 mphClear
11:53 AM51.1 °F21.9 °F32 %30.22 in10.0 miWNW (300°)15.0 mph19.6 mphClear
12:53 PM51.1 °F18.0 °F27 %30.22 in10.0 miWest (270°)12.7 mph23.0 mphClear
1:53 PM51.1 °F8.1 °F18 %30.23 in10.0 miNW (310°)9.2 mph17.3 mphClear
2:53 PM52.0 °F8.1 °F17 %30.23 in10.0 miNorth (350°)8.1 mph23.0 mphClear
3:53 PM51.1 °F8.1 °F18 %30.24 in10.0 miNorth (350°)8.1 mphClear
4:53 PM46.9 °F16.0 °F29 %30.28 in10.0 miWest (280°)10.4 mphClear
5:53 PM45.0 °F16.0 °F31 %30.30 in10.0 miWNW (290°)8.1 mphClear
6:53 PM41.0 °F19.0 °F41 %30.31 in10.0 miWNW (290°)6.9 mphClear
7:53 PM39.0 °F9.0 °F29 %30.32 in10.0 miNW (310°)6.9 mphClear
8:53 PM37.0 °F7.0 °F29 %30.34 in10.0 miCalmClear
9:53 PM36.0 °F9.0 °F33 %30.37 in10.0 miENE (60°)3.5 mphClear
10:53 PM36.0 °F10.9 °F36 %30.38 in10.0 miEast (80°)11.5 mphClear
11:53 PM34.0 °F12.9 °F42 %30.40 in10.0 miENE (70°)10.4 mphClear
Hourly data recorded from KGVL, located miles away from Dahlonega, Georgia







STORIES FROM OUR PARTNERS